FW9743 Weather Reports


time (UTC)temp
C
wind
direction
speed
KPH
gust
KPH
rain 1hr
cm
rain 24hr
cm
rain mn
cm
humidity
%
barometer
mb
20260506073051 21 159 6.4 16.1 0.00 0.00 0.00 53 1013.2
20260506071554 21 132 9.7 17.7 0.00 0.00 0.00 56 1013.4
20260506061551 16 1.6 1.6 0.00 0.00 0.00 74 1013.7
20260506044603 13 64 1.6 4.8 0.00 0.00 0.00 78 1013.6
20260506043056 13 0 0.0 0.0 0.00 0.00 0.00 80 1013.5
20260506041554 12 0 0.0 4.8 0.00 0.00 0.00 79 1013.4
20260506040052 12 0 0.0 3.2 0.00 0.00 0.00 80 1013.4
20260506034554 12 151 0.0 1.6 0.00 0.00 0.00 80 1013.4
20260506033053 11 0 0.0 0.0 0.00 0.00 0.00 1013.4
20260506031555 -17 0.0 0.0 0.00 0.00 0.00 1013.3
20260506030051 -17 0.0 0.0 0.00 0.00 0.00 1013.3
20260506024551 -17 0 0.0 0.0 0.00 0.00 0.00 82 1013.1
20260506023047 -17 0.0 0.0 0.00 0.00 0.00 1013.0
20260506021553 -17 0.0 0.0 0.00 0.00 0.00 1012.9
20260506020048 10 0.0 0.0 0.00 0.00 0.00 81 1012.9
20260506014550 10 0 0.0 0.0 0.00 0.00 0.00 79 1012.6
20260506013048 11 184 0.0 0.0 0.00 0.00 0.00 79 1012.5
20260506011550 11 0 0.0 4.8 0.00 0.00 0.00 79 1012.4
20260506010054 11 202 1.6 4.8 0.00 0.00 0.00 78 1012.3
20260506004552 11 0 0.0 3.2 0.00 0.00 0.00 78 1012.2
20260506003049 11 146 4.8 4.8 0.00 0.00 0.00 80 1012.3
20260506001600 11 104 3.2 6.4 0.00 0.00 0.00 80 1012.2
20260506000049 11 104 1.6 4.8 0.00 0.00 0.00 78 1012.1
20260505234606 -17 0.0 0.0 0.00 0.00 0.00 1012.1
20260505233049 -17 3.2 4.8 0.00 0.00 0.00 75 1012.1
20260505231545 -17 0.0 0.0 0.00 0.00 0.00 73 1012.2
20260505230046 -17 0.0 0.0 0.00 0.00 0.00 1012.2
20260505224547 13 0 1.6 4.8 0.00 0.00 0.00 71 1012.2
20260505223105 -17 263 1.6 1.6 0.00 0.00 0.00 1012.3
20260505221549 -17 0.0 0.0 0.00 0.00 0.00 1012.3
20260505220048 17 3.2 8.0 0.00 0.00 0.00 61 1012.2
20260505214554 17 298 4.8 11.3 0.00 0.00 0.00 59 1012.3
20260505213052 18 278 4.8 11.3 0.00 0.00 0.00 58 1012.3
20260505211601 19 292 6.4 6.4 0.00 0.00 0.00 54 1012.3
20260505210051 19 286 11.3 16.1 0.00 0.00 0.00 53 1012.3
20260505204549 20 288 11.3 20.9 0.00 0.00 0.00 51 1012.1
20260505203114 20 275 12.9 20.9 0.00 0.00 0.00 51 1011.8
20260505201552 20 272 9.7 19.3 0.00 0.00 0.00 49 1011.7
20260505200049 21 259 4.8 16.1 0.00 0.00 0.00 44 1011.5
20260505194552 21 286 6.4 19.3 0.00 0.00 0.00 42 1011.5
20260505193047 20 263 0.0 0.0 0.00 0.00 0.00 49 1011.2
20260505191550 -17 0.0 0.0 0.00 0.00 0.00 49 1010.8
20260505190050 20 0 0.0 0.0 0.00 0.00 0.00 45 1010.7
20260505184552 20 0.0 0.0 0.00 0.00 0.00 44 1010.7
20260505183048 21 0.0 0.0 0.00 0.00 0.00 44 1010.7
20260505181545 21 0 0.0 0.0 0.00 0.00 0.00 43 1010.6
20260505180048 22 0 0.0 1.6 0.00 0.00 0.00 40 1010.4
20260505174543 23 177 1.6 3.2 0.00 0.00 0.00 40 1010.3
20260505173050 23 0 0.0 3.2 0.00 0.00 0.00 39 1010.1
20260505171546 23 177 1.6 6.4 0.00 0.00 0.00 40 1010.2
20260505170045 23 108 1.6 4.8 0.00 0.00 0.00 42 1010.0
20260505164547 25 134 3.2 4.8 0.00 0.00 0.00 36 1010.1
20260505163051 25 151 3.2 6.4 0.00 0.00 0.00 35 1010.2
20260505161551 25 163 3.2 6.4 0.00 0.00 0.00 36 1010.2
20260505153054 26 164 3.2 8.0 0.00 0.00 0.00 32 1010.6
20260505151549 26 148 8.0 16.1 0.00 0.00 0.00 34 1010.6
20260505124550 27 167 3.2 14.5 0.00 0.00 0.00 34 1012.2
20260505123053 26 181 4.8 16.1 0.00 0.00 0.00 36 1012.4
20260505121551 26 126 4.8 16.1 0.00 0.00 0.00 31 1012.6
20260505114551 27 217 3.2 12.9 0.00 0.00 0.00 28 1012.8
20260505113100 27 214 1.6 12.9 0.00 0.00 0.00 29 1013.0
20260505111551 27 186 3.2 12.9 0.00 0.00 0.00 33 1013.3
20260505101556 25 247 3.2 14.5 0.00 0.00 0.00 40 1013.6
20260505100046 25 223 3.2 14.5 0.00 0.00 0.00 39 1013.7
20260505094552 23 176 6.4 16.1 0.00 0.00 0.00 44 1013.9
20260505093055 23 281 3.2 12.9 0.00 0.00 0.00 43 1014.0
20260505091550 23 199 3.2 14.5 0.00 0.00 0.00 44 1014.1
20260505090056 22 155 3.2 14.5 0.00 0.00 0.00 49 1014.3
20260505084547 21 115 3.2 14.5 0.00 0.00 0.00 50 1014.4
20260505083102 21 150 3.2 16.1 0.00 0.00 0.00 50 1014.5
20260505081551 21 148 4.8 9.7 0.00 0.00 0.00 50 1014.5
20260505080047 20 161 6.4 14.5 0.00 0.00 0.00 51 1014.6